Theta_e
295 296 297 298 300 302 307 312 316 319 320 320 319 318 317 317 317 317 316 317 316 316 317 317 317 318 317 317 318 317 315 315 311 312 298 296 296 296 295 296 296 297 299
293 294 295 296 297 297 299 301 304 308 314 320 321 320 319 319 318 317 316 316 316 315 316 316 317 318 317 318 317 316 316 317 314 311 295 292 293 295 295 294 294 294 295
293 292 293 293 294 294 296 298 300 302 305 308 315 319 320 320 319 318 318 317 317 316 317 316 317 317 317 317 318 317 317 317 316 314 295 292 290 293 292 291 291 291 292
292 292 291 292 292 292 293 294 296 298 300 303 307 311 316 319 320 319 318 318 318 318 317 318 318 318 318 318 317 317 317 316 316 314 296 292 289 289 291 289 286 286 288
289 290 290 290 291 291 291 291 292 293 296 298 301 304 307 313 317 318 317 319 319 319 319 319 319 315 306 313 318 317 317 316 313 311 290 288 286 287 289 289 288 287 285
287 288 288 287 287 288 289 289 291 291 293 294 296 298 301 305 304 304 307 318 318 317 317 318 318 302 304 301 303 307 315 315 312 309 297 294 291 290 290 289 287 286 285
285 285 285 284 284 286 288 289 290 290 291 292 293 295 296 299 299 299 299 310 315 318 317 317 316 314 304 314 307 302 304 305 311 306 298 299 292 293 291 290 288 289 285
281 280 282 283 284 285 286 287 289 290 290 290 291 292 293 295 295 296 296 302 308 313 316 317 316 315 312 309 309 309 304 305 306 305 307 303 300 295 294 293 291 283 281
277 277 280 281 282 284 284 285 287 288 288 289 289 290 290 292 293 294 295 298 300 304 308 312 313 313 304 299 297 291 288 288 293 295 298 298 297 296 293 288 285 285 279
275 276 278 278 280 282 284 284 286 287 287 288 288 290 289 290 293 294 295 295 295 297 300 296 292 300 298 296 299 292 289 287 288 288 290 292 294 291 291 293 288 287 277
274 275 275 276 277 282 283 284 285 285 286 287 288 289 289 289 291 293 294 293 292 293 296 297 295 294 295 297 298 293 294 288 289 287 286 286 286 284 284 286 286 287 279
272 272 273 274 276 281 282 282 283 284 285 286 287 288 290 290 290 293 293 293 294 291 292 296 293 293 294 295 294 295 292 290 286 286 284 283 282 280 278 278 278 277 278
269 268 270 273 275 278 279 280 281 283 284 284 285 286 287 289 290 292 291 292 292 291 292 293 292 292 294 294 294 292 288 286 285 285 284 282 281 277 275 275 274 273 272
265 268 270 271 271 273 276 279 280 281 281 282 283 284 286 287 288 290 290 291 290 290 290 290 290 291 292 290 288 288 287 287 286 286 283 278 276 276 275 276 274 273 271
265 266 268 268 268 270 272 276 279 280 281 280 282 283 283 284 288 290 290 289 290 290 287 286 286 285 285 285 286 284 284 285 285 283 278 277 276 275 274 275 273 270 268
262 264 265 265 265 267 270 271 276 280 281 281 281 282 285 288 289 290 291 291 292 292 286 286 286 286 285 285 283 283 283 284 282 280 279 278 275 274 272 273 272 270 269
261 262 262 263 264 266 266 265 269 273 276 277 280 283 285 286 287 289 290 291 291 291 286 287 286 286 286 286 285 284 283 283 282 280 279 278 276 274 272 271 270 269 267
258 260 261 262 263 263 264 266 266 265 267 270 276 277 280 284 287 288 289 290 287 288 287 286 286 286 286 285 284 283 282 280 280 280 278 277 275 273 272 271 271 268 266
258 259 261 261 262 262 263 263 264 267 267 266 268 272 275 280 283 286 288 287 286 286 286 286 287 287 286 285 284 283 282 280 280 279 278 276 275 274 273 272 270 268 265
259 260 260 260 260 261 262 262 264 263 263 264 265 267 270 272 273 276 283 285 285 287 287 286 287 287 286 285 285 284 281 280 279 278 276 275 274 274 271 270 268 265 265
258 258 259 260 260 260 260 260 260 261 262 262 263 265 271 270 271 274 279 284 286 286 287 287 287 287 287 286 285 284 280 280 278 277 275 274 273 271 270 269 267 266 264
258 259 259 258 259 259 259 260 260 260 260 261 262 264 269 267 268 270 275 281 285 287 287 287 287 287 287 286 285 283 281 279 278 276 275 273 272 270 269 267 265 264 263
259 258 258 258 258 258 258 259 259 259 260 260 261 262 263 264 266 269 272 277 283 286 287 287 287 287 286 286 285 283 281 279 278 276 273 272 270 268 267 265 264 263 262
258 258 258 258 258 258 258 258 259 259 259 260 261 262 262 264 265 267 270 274 280 286 287 287 286 286 286 285 283 283 282 280 278 275 274 271 269 267 266 265 264 263 261
258 258 258 258 257 257 257 257 258 258 259 260 260 261 262 264 265 267 269 273 278 285 286 286 286 286 286 282 280 279 278 276 275 274 272 270 268 267 265 264 263 262 261
258 258 257 257 256 257 256 256 257 257 258 259 260 261 262 263 265 267 269 272 276 281 286 286 286 284 281 279 278 276 274 274 273 273 271 269 267 266 265 263 262 261 260
Wind_Speed
8 8 8 9 8 6 5 6 8 9 10 12 12 13 14 14 14 14 16 15 16 15 15 15 18 17 13 13 13 13 13 13 14 8 2 3 7 9 7 5 6 6 6
5 6 8 9 9 9 8 7 8 10 10 11 11 13 14 15 14 16 16 15 17 18 18 17 19 13 18 17 14 17 15 15 14 15 3 3 5 11 10 9 6 5 6
9 6 7 8 10 11 11 11 10 9 10 11 11 12 13 14 14 15 17 17 17 18 18 18 19 18 18 15 17 15 15 13 14 12 7 3 2 8 8 4 6 5 3
10 10 8 9 9 9 10 11 11 11 11 11 10 11 12 13 14 14 15 16 17 17 17 17 18 17 19 19 18 20 18 15 16 13 6 6 4 4 5 10 6 2 4
7 6 7 8 8 8 9 10 10 11 10 12 12 12 11 12 10 14 13 16 17 17 18 18 18 18 21 21 14 19 21 18 13 14 4 4 5 7 14 7 5 7 2
8 8 8 9 9 9 10 11 11 11 12 11 12 13 13 9 13 16 16 15 16 16 17 16 16 14 18 23 26 29 23 18 17 13 10 11 11 11 10 12 11 9 5
8 9 10 11 11 12 13 13 13 14 14 13 13 14 15 15 18 18 17 15 16 17 16 16 14 12 12 18 24 26 29 27 29 17 14 14 11 16 15 14 12 10 5
9 11 11 13 14 14 14 12 12 11 13 13 14 13 15 12 17 20 20 16 16 18 18 17 17 17 15 15 14 14 13 14 15 13 15 15 16 19 20 14 15 9 8
10 10 11 11 13 14 14 15 13 13 12 12 12 13 14 14 18 19 17 13 14 16 14 16 15 15 12 12 7 6 3 1 5 8 8 12 12 27 21 15 11 13 4
11 12 12 12 13 14 14 14 12 13 12 11 13 12 13 15 18 20 17 10 13 11 12 9 13 14 12 16 12 9 8 6 6 8 9 10 15 17 23 16 17 15 6
12 12 12 11 13 13 14 13 13 14 14 12 13 12 12 9 13 18 19 11 9 11 10 10 8 16 16 18 20 13 12 12 10 8 8 9 9 7 5 7 4 11 7
12 13 12 12 10 10 13 14 13 14 14 14 14 13 10 10 11 14 19 19 19 11 11 10 9 15 17 18 15 12 18 14 9 8 9 9 9 7 6 7 9 9 7
13 12 10 12 11 11 12 11 12 12 11 12 12 13 14 11 11 17 14 18 19 13 10 11 13 14 16 12 12 18 18 8 9 8 9 7 7 8 12 10 12 15 14
13 13 12 11 12 11 9 8 8 10 11 11 12 14 14 14 13 10 10 10 14 14 13 9 7 8 7 5 6 12 6 9 9 8 9 8 9 8 8 8 9 10 9
13 12 12 10 12 12 10 9 9 9 11 12 13 13 15 15 14 21 21 14 11 13 10 3 1 2 1 4 6 5 5 7 8 9 9 10 10 8 8 7 9 5 6
12 10 10 10 10 10 11 13 17 20 20 22 27 22 14 25 29 27 29 28 23 19 5 6 4 4 6 6 7 8 8 9 10 11 10 10 11 12 10 8 7 6 10
12 13 10 11 10 10 11 12 15 13 24 24 22 23 24 26 30 30 27 29 24 14 7 8 7 7 7 7 8 8 8 12 10 8 12 10 12 10 12 10 8 8 8
10 13 9 9 10 10 11 12 12 14 16 13 14 22 26 27 26 28 27 24 12 7 7 9 8 8 8 8 8 7 5 6 10 12 11 11 12 13 12 12 10 10 11
10 9 10 10 9 11 11 11 12 12 13 16 15 15 17 27 30 27 23 11 12 10 8 9 8 9 9 8 8 7 9 8 9 10 11 11 11 13 12 11 10 13 13
10 14 13 10 10 10 10 11 11 12 14 14 14 13 13 17 15 14 13 10 12 11 9 10 9 9 10 10 9 9 9 9 10 10 11 11 12 11 12 13 11 12 9
9 10 14 10 10 11 11 12 11 12 13 14 15 14 27 18 16 16 15 14 12 12 11 11 10 10 10 10 10 10 11 11 12 11 12 12 13 12 11 12 11 10 11
10 10 10 11 11 12 12 12 13 13 14 15 15 16 28 15 15 16 17 17 14 13 11 11 11 11 11 11 11 11 13 13 13 13 12 13 14 13 13 13 12 11 11
10 12 12 12 12 15 13 12 13 13 15 15 15 15 14 14 15 16 17 18 17 13 11 11 12 11 10 10 11 12 13 14 14 13 15 15 14 13 13 14 14 12 11
12 13 13 13 12 13 13 14 14 17 17 16 15 15 15 15 16 18 18 18 19 15 12 11 12 15 12 11 9 10 9 9 10 13 18 16 15 17 14 14 13 14 13
13 13 13 13 13 13 14 14 15 15 15 15 15 16 16 16 17 17 17 18 17 18 13 12 11 14 17 16 14 14 14 19 17 19 14 18 20 22 17 14 15 13 14
13 14 13 12 13 14 14 14 15 15 16 15 16 16 16 17 18 18 17 19 17 20 14 11 12 14 14 13 15 17 21 23 21 23 17 17 18 16 14 17 20 14 15
Wind_Direction
12 357 353 346 340 330 316 303 292 278 261 252 241 235 231 229 225 226 228 227 222 229 227 222 231 224 228 227 228 226 227 220 233 226 158 160 158 172 168 177 161 166 170
1 3 0 354 345 341 330 322 316 308 301 280 257 245 244 239 227 225 228 227 227 229 230 230 231 224 226 227 227 224 224 220 220 227 138 155 171 185 172 171 167 162 163
345 10 7 4 354 343 334 324 318 311 305 301 293 269 252 246 239 233 232 231 230 230 230 229 233 229 228 225 223 226 223 218 215 220 162 162 133 172 159 158 146 139 160
347 335 1 346 341 333 325 325 325 318 311 304 297 293 284 264 251 241 234 236 238 235 231 231 233 229 232 233 231 229 224 219 220 215 177 151 144 160 161 159 155 118 151
329 338 349 332 332 326 324 328 326 321 318 311 306 295 286 281 270 260 245 239 238 237 239 236 238 235 234 234 231 235 232 227 203 214 161 142 145 148 179 175 149 142 110
342 340 340 334 337 339 331 336 333 335 331 321 314 304 302 293 292 277 260 254 244 244 245 239 236 232 235 233 233 236 235 219 226 213 172 189 185 171 161 173 149 151 173
335 337 343 340 344 341 340 339 339 337 336 334 323 316 316 313 315 315 296 276 263 255 246 249 246 237 231 239 238 236 240 233 221 189 180 190 170 175 160 164 175 164 143
350 347 348 344 336 335 334 333 330 326 328 324 320 318 310 303 312 313 309 304 283 267 259 254 248 245 234 240 244 255 249 254 240 206 197 190 185 165 173 167 160 110 83
347 339 332 331 327 330 331 331 328 322 322 321 312 311 304 303 309 296 293 294 286 280 269 263 256 252 237 217 217 202 184 182 54 67 115 145 166 161 150 129 146 144 118
339 328 327 328 321 326 325 322 319 320 311 312 308 307 304 306 312 303 299 294 285 285 278 266 257 251 228 196 203 187 201 195 150 113 105 120 142 149 158 156 158 159 124
329 324 322 321 316 317 321 322 321 319 315 314 310 310 303 288 302 309 305 297 290 288 283 278 259 241 226 206 200 193 199 155 151 121 125 123 124 123 95 101 143 155 136
327 324 321 318 315 313 322 319 320 319 317 318 317 313 310 310 305 309 309 308 301 291 284 282 265 238 225 212 202 192 151 146 142 139 142 146 137 124 97 87 83 72 46
327 319 315 318 316 323 314 316 318 319 319 319 318 317 317 320 316 312 314 312 312 306 288 274 268 249 229 213 196 161 149 148 149 160 149 143 132 119 113 97 86 88 73
323 320 320 325 323 316 312 304 305 312 313 313 315 313 312 313 314 314 315 318 318 315 305 284 252 240 210 158 147 156 175 164 163 158 137 116 116 127 128 128 119 113 97
325 321 318 319 318 315 307 297 301 292 291 302 303 304 307 305 304 306 306 307 304 299 299 303 319 84 142 160 166 166 156 155 149 140 140 142 135 132 133 130 127 121 105
326 323 318 316 315 313 309 312 297 294 298 301 297 288 290 295 300 299 302 303 297 295 269 271 251 212 202 198 199 193 164 173 152 151 152 151 150 152 149 133 130 116 132
322 315 313 310 312 311 317 310 307 305 300 295 296 299 298 302 303 303 299 300 296 286 249 265 244 223 215 209 205 210 214 165 152 157 151 161 149 148 148 140 137 127 126
309 302 299 304 307 307 307 297 310 303 308 310 305 308 302 298 302 304 302 301 295 247 239 248 247 229 218 208 202 195 193 179 164 162 155 159 159 153 155 151 152 147 142
312 306 306 303 299 298 294 295 291 292 303 301 306 306 309 305 304 299 294 280 281 268 247 245 239 233 217 206 195 189 175 183 184 162 156 159 164 152 159 153 145 146 140
304 303 302 298 298 296 291 294 299 298 295 295 298 304 312 312 306 300 293 280 276 267 254 246 241 230 226 204 195 189 180 178 181 171 165 158 160 161 158 147 148 148 146
302 300 298 296 296 296 295 293 291 288 291 292 291 293 296 297 296 292 288 280 271 264 257 247 241 235 221 214 199 191 185 183 181 174 166 159 156 155 150 138 141 139 132
292 298 298 295 294 291 289 289 289 287 284 285 290 291 295 288 284 283 281 276 270 260 255 248 242 234 223 211 203 191 191 187 180 174 168 161 156 150 141 139 136 136 137
296 295 292 288 287 288 287 284 284 284 285 283 285 288 289 284 282 280 281 281 277 265 249 244 241 237 225 213 207 199 193 192 183 172 164 157 151 145 142 139 143 140 143
292 289 288 287 288 287 286 286 284 283 284 283 284 283 282 280 279 279 280 279 280 268 248 243 240 235 228 212 197 194 191 174 167 168 157 150 144 141 138 139 145 143 136
293 292 292 292 292 291 290 286 286 285 284 284 285 282 282 282 280 279 279 279 277 270 246 241 233 233 225 198 185 178 163 156 156 155 154 148 146 143 142 141 142 136 140
297 295 293 291 289 287 288 289 287 286 284 282 280 279 281 283 281 278 278 277 275 275 240 237 229 214 195 182 169 158 154 156 156 157 151 146 144 139 140 138 139 138 137